Regional Weather Roundup
Issued by NWS Wakefield, VA

Home | Current Version | Previous Version | Graphics & Text | Print | Product List | Glossary On
Versions: 1 2 3 4 5 6 7 8 9 10 11 12 13 14 15 16 17 18 19 20 21 22 23 24 25 26 27
000
ASUS41 KAKQ 191610
RWRAKQ

REGIONAL WEATHER ROUNDUP
NATIONAL WEATHER SERVICE WAKEFIELD VA
1200 PM EDT SAT APR 19 2014

Note: "fair" indicates few or no clouds below 12,000 feet with no
significant weather and/or obstructions to visibility. * = Denotes
station may not report precipitation (e.g., rain,snow,etc.),
thunder or fog.

VAZ042-051-052>054-056-191700-
NORTHERN VIRGINIA

CITY           SKY/WX    TMP DP  RH WIND       PRES   REMARKS
WASH NATIONAL  CLOUDY    63  40  42 NE7       30.28F
DULLES         PTSUNNY   61  36  39 NE10G16   30.28F
FORT BELVOIR   MOSUNNY   62  35  37 VRB5      30.28F
QUANTICO       MOSUNNY   58  40  51 NE12      30.29F
FREDERICKSBRG* PTSUNNY   61  43  51 NE9       30.27F
STAFFORD*      PTSUNNY   61  42  49 NE10G17   30.31F
WARRENTON      MOSUNNY   62  47  58 NE12      30.28F
CULPEPER*      PTSUNNY   63  37  39 NE6       30.29F
MANASSAS*      SUNNY     57  41  54 N6        30.28
LEESBURG*      MOSUNNY   63  39  42 N14G21    30.30F
WINCHESTER     MOSUNNY   61  34  36 N7        30.29F
$$

VAZ048-049-060>072-079>083-191700-
CENTRAL AND SOUTH CENTRAL VIRGINIA...AND NORTH CENTRAL NORTH CAROLINA

CITY           SKY/WX    TMP DP  RH WIND       PRES   REMARKS
RICHMOND       CLOUDY    59  40  49 NE9G18    30.25F
CHESTERFIELD*  NOT AVBL
HANOVER        PTSUNNY   59  38  45 E12G20    30.27F
TAPPAHANNOCK*  PTSUNNY   59  37  43 N5        30.26F
CHARLOTTSVILLE PTSUNNY   61  40  45 NE13      30.27F
ORANGE*        PTSUNNY   59  41  51 N10       30.29F
LOUISA*        PTSUNNY   61  39  44 NE15      30.26S
FARMVILLE*     CLOUDY    61  41  48 N13       30.22F
SOUTH HILL*    CLOUDY    52  48  87 NE7G16    30.27S
ROANOKE RAPIDS LGT RAIN  52  45  76 NE8G16    30.21R
RALEIGH        CLOUDY    49  46  90 NE8       30.19R FOG
$$

VAZ088>098-191700-
SOUTHEAST VIRGINIA

CITY           SKY/WX    TMP DP  RH WIND       PRES   REMARKS
NORFOLK        LGT RAIN  49  42  77 NE13      30.24F
VIRGINIA BEACH LGT RAIN  48  42  80 NE14      30.24S
NORFOLK NAVAL  LGT RAIN  50  44  80 NE15      30.26F
WEST POINT*    CLOUDY    57  42  55 NE7       30.27F
NEWPORT NEWS   CLOUDY    53  46  77 NE13G20   30.24F
LANGLEY AFB    DRIZZLE   49  48  97 NE13      30.26F
FORT EUSTIS    CLOUDY    50  48  93 NE10G16   30.23F
WILLIAMSBURG*    N/A     54  50  87 NE3       30.26S
FRANKLIN*      CLOUDY    52  48  87 NE12      30.23S
WAKEFIELD      LGT RAIN  50  47  89 VRB3      30.24F
$$

VAZ020-022-025-037-045-191700-
WESTERN AND SOUTHWEST VIRGINIA

CITY           SKY/WX    TMP DP  RH WIND       PRES   REMARKS
STAUNTON*      PTSUNNY   60  40  47 N8        30.28S
HOT SPRINGS VA CLOUDY    54  34  47 NE10G18   30.30S
LYNCHBURG      CLOUDY    64  40  41 NE14      30.24F
DANVILLE       CLOUDY    53  44  71 E12G18    30.21F
MARTINSVILLE   CLOUDY    54  44  68 NE9       30.24S
ROANOKE        CLOUDY    58  40  51 N14       30.24F
BLACKSBURG     CLOUDY    55  43  62 E9        30.24S
DUBLIN*        CLOUDY    54  41  61 CALM      30.24S
MARION*        CLOUDY    59  36  42 E13G22    30.23S
HILLSVILLE*    CLOUDY    55  30  38 NE7       30.24R
RICHLANDS*     CLOUDY    64  34  32 E12G21    30.22F
WISE*          MOSUNNY   63  30  29 NE16G25   30.22F
ABINGDON*      CLOUDY    65  34  31 E16G22    30.19F
$$

MDZ021>025-VAZ099-100-191700-
SOUTHERN MARYLAND AND THE DELMARVA PENINSULA

CITY           SKY/WX    TMP DP  RH WIND       PRES   REMARKS
PATUXENT RIVER CLOUDY    56  39  53 N12       30.27F
BAY BRIDGE APT MOSUNNY   54  43  66 NW8       30.29F
LEONARDTOWN    PTSUNNY   57  37  47 N7        30.27F
DOVER          MOSUNNY   59  43  55 NE8       30.25F
GEORGETOWN     MOSUNNY   59  39  47 NE9G18    30.28F
EASTON           N/A     61  45  55 N7        30.31F
CAMBRIDGE      PTSUNNY   59  41  51 N9        30.26F
SALISBURY      PTSUNNY   63  40  42 NE13      30.26F
OCEAN CITY     PTSUNNY   55  42  61 NE8       30.27F
WALLOPS ISLAND PTSUNNY   55  46  71 E13       30.26F
ACCOMACK*      CLOUDY    54  41  62 E9        30.25F
$$

NCZ012>017-030>032-191700-
EASTERN NORTH CAROLINA

CITY           SKY/WX    TMP DP  RH WIND       PRES   REMARKS
ELIZABETH CITY LGT RAIN  50  42  74 NE14      30.22S
AHOSKIE*       CLOUDY    49  45  87 NE6       30.21R
EDENTON*       LGT RAIN  49  45  87 NE10G18   30.19S
CURRITUCK*     DRIZZLE   50  41  70 NE12G18   30.23F
KILL DEVIL HLS LGT RAIN  47  44  88 NE10G20   30.19S
MANTEO         LGT RAIN  47  43  85 NE21      30.18F
CAPE HATTERAS  LGT RAIN  53  53 100 NE16G26   30.10F FOG
GOLDSBORO      RAIN      50  50 100 NE9       30.13R FOG
WASHINGTON     CLOUDY    50  46  85 NE13G20   30.15S
GREENVILLE     DRIZZLE   50  46  87 NE13G18   30.16S
NEW BERN       LGT RAIN  55  51  86 NE17G25   30.11F
WILMINGTON     CLOUDY    56  53  90 NE13      30.06S
$$

VAZ048-191700-
ELSEWHERE

CITY           SKY/WX    TMP DP  RH WIND       PRES   REMARKS
HARRISBURG PA  PTSUNNY   62  27  26 N14G20    30.30F
BALTIMORE      PTSUNNY   62  36  37 NE8       30.27F
ANNAPOLIS      SUNNY     57  40  52 N8        30.29F
ANDREWS AFB    MOSUNNY   60  40  46 NE8       30.27F
WILMINGTON DE  SUNNY     61  37  41 VRB3      30.29F
PHILADELPHIA   PTSUNNY   64  29  26 N13       30.28F
WILDWOOD NJ*   PTSUNNY   55  43  62 CALM      30.29F
ATLANTIC CITY  MOSUNNY   61  34  36 VRB7      30.27F
HENDERSON NC   LGT RAIN  48  44  87 NE12      30.20F
GREENSBORO     CLOUDY    50  43  77 NE10      30.19R
ROCKY MOUNT    LGT RAIN  49  46  90 N13       30.19R FOG
FAYETTEVILLE   CLOUDY    52  48  86 NE15G21   30.12R
CHARLOTTE      LGT RAIN  50  49  96 N14       30.16S FOG
$$

VAZ100-191700-
MARINE

STATION/POSITION TIME  TEMP    WIND        PRES    WAVE   SWELL
                       AIR SEA DIR/SP/G            HT/PER HT/PER
                 (UTC) (F)     (DEG/KT/KT) (MB)    (FT/S) (FT/S)
44066 TX TWR #4  1600   44 44  280/  8/ 10 1024.8F   5/11   5/11
CAPE MAY NJ      1600   49 52  320/  7/  8 1025.2F
LEWES DE         1600   48 49  350/  6/  7 1024.9F
15NM E FENWICK I 1600   46 46              1025.4F   5/10
OCEAN-CITY-INLET 1600   48 46   80/  6/  8 1025.0F
WACHAPREAGUE VA  1600   49 51   60/ 10/ 12 1024.3F
THOMAS POINT MD  1600   51 53   10/ 10/ 11 1026.0F
GOOSES REEF MD   1600   50      10/  4/  4 1027.0F
COVE POINT MD    1600   49     350/  8/  9 1025.4F
SOLOMONS ISLAND  1600      52                N/A
BISHOPS HEAD MD  1600   55 54   10/ 10/ 15 1024.7F
PINEY POINT MD   1600           60/  9/ 11   N/A
POTOMAC MD       1600   51      30/ 10/ 12 1024.7S
CAMBRIDGE MD     1600   53 55  340/  3/  5 1024.9F
LEWISETTA VA     1600   54 54   60/  6/  8 1024.9S
RAPPAHANNOCK LGT 1600           40/ 10/ 12 1025.1S
STINGRAY PT      1600   50      50/ 12/ 14 1024.6F
YORK RVR RNG VA  1600   50      50/ 17/ 19 1023.5F
YORKTOWN VA      1600   50 54   50/ 12/ 14 1024.0F
JAMESTOWN VA     1600   49      70/  6/  8   N/A
DOMINION TERM VA 1600   49      30/  6/ 10 1024.0S
KIPTOPEKE VA     1600      52   60/ 10/ 14   N/A
CHES BAY BRIDGE  1600   48 51   30/ 16/ 19 1023.9S
CAPE HENRY VA    1600   47      30/ 16/ 19   N/A
CHESAPEAKE LGHT  1500   46      40/ 17/ 18 1024.7R
WILLOUBY STN VA  1600   48      40/ 15/ 17 1023.2S
S CRANEY ISL VA  1600           20/ 14/ 19 1024.0S
CAPE HENRY BUOY  1600      47                N/A     4/11   2/11
1ST LANDING BUOY 1600      45                N/A     4/10   3/10
64NM E OF VA BCH 1600   52 48   30/ 14/ 16 1022.9S   7/11   5/11
DUCK PIER NC     1600   47 49   40/ 20/ 24 1022.0R
44100 DUCK FRF   1600      48                N/A     6/11   3/11
44056 DUCK FRF   1600      47                N/A     6/ 6   2/11
OREGON INLET NC  1600   49 51   20/ 18/ 23 1021.6S
HATTERAS NC      1600   54 56   30/ 17/ 27 1019.5F
CAPE LOOKOUT NC  1500   56      30/ 31/ 37 1017.6R
FRYING PAN SHLS  1600   66 68   60/ 19/ 25 1014.2F   7/ 7   2/10
$$



USA.gov is the U.S. government's official web portal to all federal, state and local government web resources and services.